• In Latvia
  • List of Countries
  • For 7 days
  • Water Temperature
  • Satellite Maps
  • Weather Map
  • Weather Widgets
  • user-avatar
    Login

    Hourly Weather Licata

    Today, 25 April, Wednesday

    Time Temperature Precipitation Wind Pressure Humidity
    00:00 +18°C° 0 mm 1 mps 762 mmHg 70%
    01:00 +16°C° 0 mm 1 mps 762 mmHg 70%
    02:00 +16°C° 0 mm 1 mps 762 mmHg 70%
    03:00 +16°C° 0 mm 1 mps 762 mmHg 69%
    04:00 +16°C° 0 mm 1 mps 762 mmHg 69%
    05:00 +18°C° 0 mm 1 mps 762 mmHg 66%
    06:00 +20°C° 0 mm 1 mps 762 mmHg 62%
    07:00 +21°C° 0 mm 1 mps 762 mmHg 59%
    08:00 +23°C° 0 mm 1 mps 762 mmHg 52%
    09:00 +24°C° 0 mm 1 mps 762 mmHg 45%
    10:00 +26°C° 0 mm 1 mps 762 mmHg 38%
    11:00 +27°C° 0 mm 2 mps 762 mmHg 37%
    12:00 +27°C° 0 mm 3 mps 762 mmHg 36%
    13:00 +28°C° 0 mm 3 mps 762 mmHg 34%
    14:00 +28°C° 0 mm 3 mps 761 mmHg 37%
    15:00 +27°C° 0 mm 3 mps 761 mmHg 40%
    16:00 +26°C° 0 mm 3 mps 761 mmHg 42%
    17:00 +24°C° 0 mm 2 mps 760 mmHg 49%
    18:00 +21°C° 0 mm 2 mps 760 mmHg 57%
    19:00 +19°C° 0 mm 1 mps 760 mmHg 64%
    20:00 +19°C° 0 mm 1 mps 760 mmHg 65%
    21:00 +17°C° 0 mm 2 mps 761 mmHg 65%
    22:00 +16°C° 0 mm 2 mps 761 mmHg 66%
    23:00 +16°C° 0 mm 2 mps 761 mmHg 64%

    Tomorrow, 26 April, Thursday

    Time Temperature Precipitation Wind Pressure Humidity
    00:00 +16°C° 0 mm 2 mps 760 mmHg 62%
    01:00 +16°C° 0 mm 2 mps 760 mmHg 60%
    02:00 +16°C° 0 mm 3 mps 760 mmHg 56%
    03:00 +16°C° 0 mm 3 mps 759 mmHg 53%
    04:00 +16°C° 0 mm 3 mps 759 mmHg 49%
    05:00 +17°C° 0 mm 3 mps 759 mmHg 49%
    06:00 +18°C° 0 mm 3 mps 759 mmHg 49%
    07:00 +20°C° 0 mm 3 mps 759 mmHg 49%
    08:00 +22°C° 0 mm 3 mps 759 mmHg 43%
    09:00 +25°C° 0 mm 4 mps 759 mmHg 38%
    10:00 +27°C° 0 mm 4 mps 758 mmHg 33%
    11:00 +28°C° 0 mm 4 mps 758 mmHg 32%
    12:00 +28°C° 0 mm 4 mps 758 mmHg 32%
    13:00 +29°C° 0 mm 5 mps 758 mmHg 31%
    14:00 +29°C° 0 mm 5 mps 757 mmHg 34%
    15:00 +28°C° 0 mm 5 mps 757 mmHg 37%
    16:00 +28°C° 0 mm 5 mps 756 mmHg 40%
    17:00 +25°C° 0 mm 5 mps 756 mmHg 45%
    18:00 +22°C° 0 mm 5 mps 756 mmHg 51%
    19:00 +20°C° 0 mm 4 mps 756 mmHg 57%
    20:00 +19°C° 0 mm 5 mps 756 mmHg 57%
    21:00 +19°C° 0 mm 5 mps 756 mmHg 57%
    22:00 +17°C° 0 mm 6 mps 756 mmHg 57%
    23:00 +17°C° 0 mm 6 mps 756 mmHg 56%

    Day after tomorrow, 27 April, Friday

    Time Temperature Precipitation Wind Pressure Humidity
    00:00 +17°C° 0 mm 6 mps 755 mmHg 56%
    01:00 +17°C° 0 mm 6 mps 755 mmHg 55%
    02:00 +16°C° 0 mm 6 mps 755 mmHg 55%
    03:00 +16°C° 0 mm 6 mps 754 mmHg 55%
    04:00 +16°C° 0 mm 6 mps 754 mmHg 56%
    05:00 +17°C° 0 mm 6 mps 754 mmHg 55%
    06:00 +19°C° 0 mm 6 mps 754 mmHg 54%
    07:00 +20°C° 0 mm 7 mps 754 mmHg 53%
    08:00 +21°C° 0 mm 7 mps 754 mmHg 47%
    09:00 +23°C° 0 mm 8 mps 754 mmHg 41%
    10:00 +26°C° 0 mm 9 mps 755 mmHg 35%
    11:00 +27°C° 0 mm 9 mps 755 mmHg 34%
    12:00 +27°C° 0 mm 9 mps 755 mmHg 33%
    13:00 +28°C° 0 mm 9 mps 755 mmHg 32%
    14:00 +27°C° 0 mm 9 mps 754 mmHg 34%
    15:00 +27°C° 0 mm 8 mps 754 mmHg 35%
    16:00 +26°C° 0 mm 8 mps 754 mmHg 36%
    17:00 +23°C° 0 mm 8 mps 754 mmHg 40%
    18:00 +21°C° 0 mm 7 mps 754 mmHg 44%
    19:00 +18°C° 0 mm 7 mps 754 mmHg 48%
    20:00 +17°C° 0 mm 7 mps 755 mmHg 47%
    21:00 +17°C° 0 mm 6 mps 755 mmHg 46%
    22:00 +17°C° 0 mm 6 mps 755 mmHg 45%
    23:00 +17°C° 0 mm 5 mps 755 mmHg 45%

    28 April, Saturday

    Time Temperature Precipitation Wind Pressure Humidity
    00:00 +17°C° 0 mm 4 mps 755 mmHg 45%
    01:00 +17°C° 0 mm 2 mps 755 mmHg 45%
    02:00 +17°C° 0 mm 3 mps 755 mmHg 47%
    03:00 +16°C° 0 mm 3 mps 755 mmHg 49%
    04:00 +15°C° 0 mm 4 mps 755 mmHg 51%
    05:00 +17°C° 0.1 mm 4 mps 755 mmHg 52%
    06:00 +18°C° 0.1 mm 4 mps 755 mmHg 53%
    07:00 +19°C° 0.1 mm 4 mps 755 mmHg 54%
    08:00 +21°C° 0 mm 4 mps 755 mmHg 51%
    09:00 +24°C° 0 mm 3 mps 756 mmHg 47%
    10:00 +26°C° 0 mm 3 mps 756 mmHg 43%
    11:00 +26°C° 0.2 mm 3 mps 756 mmHg 46%
    12:00 +26°C° 0.2 mm 3 mps 756 mmHg 49%
    13:00 +26°C° 0.2 mm 3 mps 755 mmHg 52%
    14:00 +25°C° 0 mm 3 mps 755 mmHg 55%
    15:00 +25°C° 0 mm 3 mps 755 mmHg 58%
    16:00 +25°C° 0 mm 3 mps 755 mmHg 61%
    17:00 +22°C° 0 mm 3 mps 755 mmHg 68%
    18:00 +20°C° 0 mm 2 mps 755 mmHg 74%
    19:00 +19°C° 0 mm 2 mps 756 mmHg 81%
    20:00 +18°C° 0 mm 2 mps 756 mmHg 83%
    21:00 +18°C° 0 mm 2 mps 757 mmHg 85%
    22:00 +17°C° 0 mm 2 mps 757 mmHg 87%
    23:00 +17°C° 0 mm 2 mps 757 mmHg 85%

    29 April, Sunday

    Time Temperature Precipitation Wind Pressure Humidity
    00:00 +17°C° 0 mm 2 mps 756 mmHg 82%
    01:00 +16°C° 0 mm 2 mps 756 mmHg 80%
    02:00 +16°C° 0 mm 2 mps 756 mmHg 77%
    03:00 +16°C° 0 mm 2 mps 756 mmHg 74%
    04:00 +16°C° 0 mm 2 mps 756 mmHg 70%
    05:00 +19°C° 0 mm 1 mps 756 mmHg 66%
    06:00 +20°C° 0 mm 1 mps 756 mmHg 62%
    07:00 +21°C° 0 mm 1 mps 756 mmHg 58%
    08:00 +23°C° 0 mm 1 mps 756 mmHg 52%
    09:00 +25°C° 0 mm 1 mps 757 mmHg 46%
    10:00 +27°C° 0 mm 2 mps 757 mmHg 39%
    11:00 +27°C° 0 mm 3 mps 757 mmHg 40%
    12:00 +28°C° 0 mm 4 mps 757 mmHg 40%
    13:00 +28°C° 0 mm 5 mps 757 mmHg 40%
    14:00 +28°C° 0 mm 5 mps 757 mmHg 43%
    15:00 +27°C° 0 mm 5 mps 757 mmHg 46%
    16:00 +27°C° 0 mm 4 mps 757 mmHg 48%
    17:00 +25°C° 0 mm 4 mps 757 mmHg 56%
    18:00 +22°C° 0 mm 4 mps 757 mmHg 64%
    19:00 +20°C° 0 mm 5 mps 758 mmHg 71%
    20:00 +19°C° 0 mm 5 mps 758 mmHg 74%
    21:00 +19°C° 0 mm 5 mps 759 mmHg 76%
    22:00 +17°C° 0 mm 5 mps 759 mmHg 79%
    23:00 +17°C° 0 mm 5 mps 759 mmHg 80%

    30 April, Monday

    Time Temperature Precipitation Wind Pressure Humidity
    00:00 +16°C° 0 mm 5 mps 759 mmHg 81%
    01:00 +16°C° 0 mm 5 mps 759 mmHg 82%
    02:00 +16°C° 0 mm 6 mps 759 mmHg 83%
    03:00 +15°C° 0 mm 6 mps 759 mmHg 84%
    04:00 +15°C° 0 mm 6 mps 760 mmHg 85%
    05:00 +16°C° 0 mm 6 mps 760 mmHg 80%
    06:00 +17°C° 0 mm 6 mps 760 mmHg 74%
    07:00 +19°C° 0 mm 5 mps 760 mmHg 69%
    08:00 +21°C° 0 mm 5 mps 761 mmHg 59%
    09:00 +23°C° 0 mm 5 mps 761 mmHg 49%
    10:00 +26°C° 0 mm 4 mps 761 mmHg 39%
    11:00 +27°C° 0 mm 4 mps 761 mmHg 36%
    12:00 +28°C° 0 mm 5 mps 760 mmHg 33%
    13:00 +29°C° 0 mm 5 mps 760 mmHg 30%
    14:00 +28°C° 0 mm 6 mps 760 mmHg 32%
    15:00 +28°C° 0 mm 6 mps 760 mmHg 35%
    16:00 +28°C° 0 mm 7 mps 760 mmHg 37%
    17:00 +24°C° 0 mm 6 mps 760 mmHg 46%
    18:00 +22°C° 0 mm 5 mps 760 mmHg 55%
    19:00 +20°C° 0 mm 4 mps 760 mmHg 64%
    20:00 +19°C° 0 mm 4 mps 760 mmHg 65%
    21:00 +18°C° 0 mm 3 mps 760 mmHg 66%
    22:00 +17°C° 0 mm 3 mps 761 mmHg 68%
    23:00 +17°C° 0 mm 3 mps 760 mmHg 67%
    Show more